Wind_Speed
20 20 21 22 22 23 23 23 22 22 22 21 19 18 16 14 14 14 13 13 12 11 11 11 11 10 9 7 5 4 4 6 7 8 9 9 7 7 7 6 7 7 7 7 6 5 4 5 8 10 11 12 14 17 16 14 15 15 13 12 8 6 8 10 10 10 10 10 8 11 13 13 14 14 13 13 14 14 14 13 11 9 9 8 7
21 20 21 21 22 23 23 23 23 22 21 20 18 17 16 14 14 14 14 13 12 11 11 12 11 10 9 8 6 6 6 6 7 9 9 9 8 8 7 6 6 7 7 7 6 5 5 5 7 9 11 14 16 16 16 15 15 15 15 15 14 11 8 8 12 12 11 10 10 12 14 13 13 13 13 12 12 12 12 11 9 8 7 6 5
21 20 20 21 22 23 23 23 23 22 21 21 19 18 17 16 14 14 14 14 12 11 11 12 13 12 10 9 7 7 7 6 7 8 9 9 8 8 6 6 6 6 6 6 6 5 4 5 5 6 7 11 14 15 15 15 15 16 17 18 18 15 12 9 10 12 14 12 11 13 14 13 12 12 11 11 11 10 10 9 8 7 6 5 4
20 20 20 20 22 23 23 23 23 23 22 22 21 20 18 17 15 14 14 13 12 12 12 13 14 13 11 9 8 8 8 7 7 8 9 9 9 7 6 5 6 6 5 4 4 3 3 4 4 4 4 7 9 11 11 12 12 13 14 16 18 17 15 12 9 11 15 15 13 14 15 14 12 11 10 10 9 9 8 8 7 7 6 6 6
20 21 21 22 23 24 24 24 23 24 23 23 23 21 20 18 16 16 15 13 13 13 13 14 13 12 11 10 9 9 8 8 7 7 8 9 8 6 5 5 5 5 4 3 3 3 2 3 4 4 4 5 7 8 8 8 8 7 7 9 12 15 16 14 9 8 13 16 15 14 14 13 12 11 10 10 9 9 8 8 8 8 8 8 7
21 21 21 22 23 23 24 24 24 24 25 25 24 21 20 18 17 17 15 13 14 15 14 14 12 11 11 10 9 9 8 8 7 7 7 8 7 5 5 6 6 5 4 3 3 2 2 3 4 4 3 3 5 5 5 5 5 4 4 4 7 12 16 15 11 8 10 15 16 14 14 13 12 12 11 10 10 10 9 7 6 7 7 7 6
19 20 20 20 21 22 22 22 23 25 25 25 23 22 21 19 17 16 14 13 16 15 14 14 13 12 11 10 9 9 9 9 9 8 8 8 7 6 6 7 7 5 5 4 4 3 2 2 3 3 3 2 2 2 2 3 3 3 4 4 7 11 14 15 13 10 11 14 15 14 14 13 13 12 11 10 11 11 9 7 6 6 7 8 8
20 20 21 21 21 21 20 21 21 21 21 20 18 17 18 17 15 15 14 14 15 14 12 13 14 13 12 10 10 10 10 10 10 10 10 10 9 8 7 9 9 7 6 5 5 5 4 3 3 3 3 2 2 2 1 1 2 3 4 6 7 10 13 13 12 11 12 14 15 14 13 12 12 12 11 11 12 11 11 10 10 11 11 10 9
18 18 20 21 23 22 21 22 20 17 17 18 16 14 14 15 15 16 16 14 14 13 12 13 14 15 14 12 13 13 13 13 12 12 12 12 12 10 9 10 10 9 8 7 7 6 6 5 5 4 4 4 3 4 3 3 2 3 4 5 7 9 11 12 12 12 14 15 15 14 13 12 12 12 12 13 13 12 12 12 12 12 11 10 8
11 12 14 16 18 19 20 22 22 19 18 20 21 21 19 17 17 19 18 16 14 14 14 14 15 15 15 14 15 15 15 15 14 13 13 13 14 13 12 11 11 11 10 9 8 8 8 8 8 8 8 7 7 7 6 6 5 4 5 6 7 8 9 11 12 13 15 16 15 15 14 12 12 12 13 13 12 11 11 11 12 12 9 7 6
7 6 7 7 8 10 13 16 18 19 19 20 23 26 24 21 20 20 19 17 15 15 16 17 16 16 15 15 15 16 16 16 15 14 14 14 15 15 15 14 13 13 12 12 11 10 10 11 11 11 11 11 10 10 9 9 9 8 7 8 8 8 9 10 12 13 15 15 15 14 14 13 12 12 12 11 11 10 10 10 10 10 7 5 3
6 5 3 3 4 6 7 7 9 13 17 18 19 21 23 21 19 19 19 17 16 16 16 16 16 16 16 15 15 15 15 15 16 16 16 17 17 18 17 17 16 15 15 15 14 13 13 13 13 13 13 13 13 13 12 11 11 11 11 11 11 10 10 10 11 12 13 13 13 12 12 12 11 11 11 11 11 10 9 8 7 6 4 2 3
14 12 10 6 4 6 6 5 5 7 11 14 14 15 17 17 16 16 16 16 16 16 15 15 16 16 17 17 16 16 16 16 17 18 18 19 19 20 19 19 18 17 17 16 16 15 16 16 15 15 16 16 16 15 15 14 14 14 14 13 13 12 10 10 10 10 10 10 11 11 10 10 11 11 11 11 10 9 7 6 3 2 2 2 3
21 20 18 16 12 8 5 4 3 3 5 8 11 12 13 14 14 15 15 16 17 17 16 17 17 17 17 17 17 16 17 18 18 18 19 20 21 21 21 21 20 19 18 18 17 17 17 17 17 17 18 19 19 17 16 17 17 16 16 15 13 11 10 10 11 11 10 9 10 10 10 9 10 12 11 9 8 6 5 3 2 2 2 3 3
28 26 24 22 20 17 13 8 6 5 3 4 7 8 7 7 8 11 12 14 15 15 16 16 17 18 19 18 17 17 18 19 19 19 20 22 23 23 23 22 21 20 19 18 18 18 18 18 18 18 19 20 19 17 17 17 18 17 17 15 13 11 10 10 10 10 10 10 9 10 11 11 10 11 10 7 5 3 2 2 2 2 2 2 2
30 28 28 28 26 24 20 17 14 11 6 4 4 4 2 1 2 4 5 7 9 11 12 13 14 16 18 18 18 18 18 17 17 18 20 21 22 23 23 23 21 20 19 19 19 19 18 18 18 18 19 20 19 18 17 17 17 17 16 14 13 12 11 10 10 10 10 10 10 10 11 12 10 9 7 5 3 2 1 1 1 1 1 2 2
28 27 28 28 28 28 26 24 21 18 14 10 6 3 2 1 0 1 2 3 4 6 8 10 10 12 13 13 14 15 15 14 16 18 20 20 21 21 22 22 21 20 20 20 19 19 18 17 17 17 18 19 19 19 18 17 16 16 15 13 13 13 13 12 12 11 11 11 11 12 11 11 9 7 6 4 2 1 1 1 2 2 2 1 2
27 26 26 26 27 28 28 27 26 24 22 20 16 12 9 6 4 2 1 1 1 3 6 8 9 10 9 10 13 13 12 13 16 18 19 19 20 20 20 21 21 21 22 21 19 18 17 16 16 17 18 18 19 19 18 18 18 18 17 16 16 16 17 17 16 15 14 13 13 12 11 10 8 6 5 4 3 2 2 2 2 1 1 1 2
24 25 24 25 26 26 26 27 26 26 25 24 23 20 18 16 12 8 6 3 1 3 5 6 7 7 6 8 12 13 12 13 15 16 17 18 18 19 20 21 22 23 22 21 19 19 18 17 17 17 17 17 18 19 19 18 18 18 19 20 21 20 19 18 17 16 16 15 13 12 11 9 8 6 5 3 2 2 1 1 0 1 2 2 3
22 23 23 22 23 23 23 23 23 23 23 22 21 21 20 20 18 17 15 11 7 5 5 5 6 5 5 6 9 10 11 12 13 15 17 17 18 19 20 21 23 23 22 21 20 20 19 18 18 18 17 17 18 20 20 19 18 18 19 20 20 20 20 19 17 16 16 15 14 12 11 9 7 6 5 3 2 2 2 2 2 3 3 3 3
19 21 21 21 22 21 21 20 19 19 19 17 16 17 17 17 18 18 18 16 14 12 11 10 8 6 5 4 5 7 8 10 11 12 14 15 17 18 19 20 20 20 20 20 21 21 20 19 18 18 18 19 19 21 21 20 20 19 19 18 17 17 20 20 18 17 16 15 14 12 11 10 8 7 6 5 4 4 4 3 3 3 3 3 3
18 19 21 22 22 22 21 20 19 18 17 16 15 15 15 15 14 14 14 14 14 14 13 13 12 11 10 9 9 8 8 8 9 10 11 12 12 13 14 16 17 17 17 19 20 20 20 19 19 20 20 21 22 23 23 22 22 21 19 17 16 17 20 20 19 18 16 15 14 13 12 11 10 9 8 7 7 5 4 4 3 4 4 5 5
18 19 20 21 21 21 21 20 19 19 18 17 16 16 16 15 14 13 12 12 12 13 13 13 13 12 11 11 11 12 12 12 11 11 10 10 10 12 13 13 15 16 18 18 19 19 19 19 19 20 22 22 23 24 25 25 24 21 19 17 17 19 21 21 19 18 17 16 15 15 14 13 12 11 10 9 8 6 4 4 4 5 6 6 6
16 17 18 18 18 19 19 19 19 19 18 17 17 17 17 16 15 15 13 12 12 13 14 14 14 14 14 14 13 13 14 15 15 14 13 12 11 12 14 15 16 17 18 18 19 19 19 20 20 21 23 24 25 26 27 26 24 20 19 19 19 21 22 22 20 19 17 17 17 17 16 14 13 12 11 9 7 5 4 4 6 6 7 6 5
15 16 17 17 16 16 16 16 17 17 17 17 17 17 17 16 15 15 14 14 14 15 15 14 14 14 14 15 15 15 15 15 15 15 15 16 14 13 13 15 17 18 18 19 19 20 20 20 21 22 23 24 25 26 25 23 21 19 18 19 20 22 23 22 20 19 18 19 19 18 17 15 13 11 10 8 6 5 5 6 7 7 7 7 6
14 15 15 15 15 15 16 16 16 16 16 17 17 16 16 16 15 15 13 13 14 14 14 14 13 12 12 13 15 15 14 14 13 13 15 16 15 14 14 14 14 16 17 17 18 20 20 19 20 21 20 19 21 22 22 21 19 17 17 19 20 21 22 20 19 19 20 20 20 18 17 15 12 10 8 7 6 5 5 7 7 7 7 7 6
14 14 15 15 15 16 16 17 17 17 17 17 17 16 16 15 15 15 14 14 13 13 13 13 13 13 13 14 15 15 15 15 13 12 14 14 13 13 14 14 16 18 18 16 17 17 15 14 14 15 15 15 16 16 16 16 18 18 19 19 19 19 18 17 17 17 18 19 18 17 15 13 11 9 7 6 5 4 5 5 6 6 6 6 7
13 14 14 14 15 15 16 17 17 18 18 18 18 18 18 17 16 15 15 15 15 14 14 13 13 13 14 15 17 17 16 16 16 16 15 15 14 14 15 17 20 22 19 16 17 17 15 13 12 10 12 15 14 12 12 13 15 17 17 15 14 14 13 13 14 15 16 17 16 15 13 11 9 8 6 5 4 3 3 4 4 5 6 7 8
12 14 14 15 15 15 16 16 17 18 18 19 18 18 17 17 16 14 13 13 14 14 13 13 12 12 12 14 16 17 17 16 16 17 17 17 17 16 16 17 18 20 20 18 17 16 15 13 11 10 13 15 13 12 14 14 13 13 13 12 11 11 11 11 12 14 15 14 13 13 12 10 8 7 5 4 3 2 1 2 4 6 7 7 9
13 14 14 15 15 15 15 16 17 17 18 19 19 17 16 15 14 13 12 12 11 11 12 12 12 12 13 13 13 15 17 17 17 17 18 18 18 18 17 15 13 16 18 17 15 14 13 14 15 16 18 18 16 16 18 17 15 14 14 14 14 14 12 10 11 12 12 10 10 10 9 9 7 6 5 4 3 2 1 2 5 6 6 7 9
13 14 14 13 13 14 15 16 17 18 18 19 20 20 19 17 15 14 13 13 12 11 11 11 11 13 14 15 14 14 15 17 17 17 18 19 19 19 17 13 11 13 15 17 17 16 17 19 20 21 23 24 24 24 24 21 19 18 18 18 17 16 13 10 9 9 9 8 8 9 8 8 7 7 6 5 4 2 2 4 5 6 6 7 8
12 12 12 12 12 13 15 16 17 18 18 19 20 21 21 21 20 18 17 15 13 12 13 13 13 13 14 16 17 16 16 16 16 17 18 18 18 18 15 11 10 14 16 18 18 19 20 22 23 24 26 27 28 29 28 26 23 23 23 23 22 20 15 11 10 10 10 9 10 11 10 9 8 8 6 5 3 2 3 4 4 4 5 6 6
11 11 11 12 13 14 16 17 18 18 18 18 19 19 20 20 21 22 22 20 16 15 16 16 15 14 13 13 15 16 17 17 17 17 17 18 17 16 13 10 12 17 18 19 20 21 22 24 25 26 28 30 31 32 31 29 27 27 26 24 23 20 17 14 13 14 13 11 12 12 11 10 9 8 6 5 3 3 3 3 3 3 4 5 5
9 9 11 12 13 15 16 17 17 17 18 18 18 19 18 17 17 19 21 22 22 21 21 20 18 17 15 13 13 14 15 16 16 17 17 17 17 15 11 10 16 20 20 21 22 23 24 26 28 29 31 32 33 34 34 33 33 33 29 25 23 22 20 19 18 16 15 14 13 13 12 11 10 8 6 5 4 3 3 3 2 3 3 3 5
8 9 11 12 13 15 16 16 16 17 17 18 18 18 18 17 16 15 15 16 18 21 23 23 21 18 17 16 15 14 13 13 14 15 15 16 16 14 9 7 15 20 21 24 24 23 22 23 23 24 27 29 31 33 34 35 36 36 32 29 29 27 25 23 20 17 15 16 15 14 13 11 9 7 6 5 4 3 3 3 3 2 2 3 6
8 9 10 11 13 15 15 15 16 16 16 17 17 17 18 18 16 14 13 13 15 18 21 22 21 18 17 17 16 15 13 13 13 14 15 15 15 13 9 6 9 14 19 24 26 24 20 18 16 16 18 21 23 24 24 25 28 31 31 31 32 30 27 24 21 18 17 16 14 13 12 10 9 8 6 4 3 2 2 3 3 1 1 4 7
9 10 10 11 12 14 14 14 15 15 16 17 18 18 19 18 16 16 16 16 17 18 19 20 22 21 20 19 19 17 15 13 11 11 12 12 12 10 8 7 8 11 14 18 22 24 23 21 18 17 18 20 22 22 21 20 23 26 28 30 32 30 27 25 22 19 18 17 15 13 12 10 8 7 4 3 2 3 3 3 2 1 2 4 6
8 10 10 11 11 12 13 14 15 15 16 17 18 18 17 17 18 19 20 20 19 18 18 20 22 23 23 22 21 20 18 14 11 10 9 9 9 9 9 9 8 9 10 12 16 20 22 20 17 16 17 18 20 21 22 24 26 27 29 30 31 29 27 25 22 20 18 17 16 13 11 9 7 5 3 3 3 3 3 3 2 1 2 4 6
8 10 10 10 9 10 12 13 15 16 16 17 18 16 16 17 19 20 19 19 19 19 19 20 21 22 22 22 22 22 21 17 15 14 12 9 8 8 9 10 9 8 8 9 10 12 14 13 13 14 14 15 16 18 20 23 26 29 29 29 29 29 28 25 23 21 19 17 15 12 10 8 7 5 4 4 3 3 3 4 2 1 1 4 7
7 9 9 9 9 9 11 13 15 16 16 17 16 14 14 17 18 18 18 18 19 19 20 20 20 20 20 20 20 20 19 16 15 15 14 12 10 8 8 8 8 8 7 6 5 6 5 4 6 7 9 10 12 14 15 18 22 25 26 25 25 25 25 22 20 19 17 15 13 11 10 8 7 5 4 4 2 2 3 4 3 1 3 5 7
5 6 6 7 7 8 9 12 14 15 15 15 14 13 13 16 17 17 17 17 17 18 19 18 18 18 18 17 17 15 14 13 14 14 14 14 13 10 8 7 8 8 8 6 4 3 2 1 1 3 5 7 8 8 9 10 14 18 22 23 21 20 19 17 17 16 15 13 11 10 9 7 5 4 4 4 3 3 4 4 2 2 4 5 7
3 3 4 5 5 6 8 10 13 14 14 14 13 12 13 16 17 16 15 15 15 16 16 16 16 16 16 16 15 13 12 13 15 15 15 15 13 11 10 9 9 8 8 8 5 2 2 1 3 5 6 7 8 7 6 7 9 13 18 20 18 15 15 15 15 14 12 11 10 8 6 5 4 3 3 4 4 5 5 4 3 2 4 7 8
3 3 3 3 3 3 6 8 10 12 13 13 12 13 14 15 15 15 15 14 13 13 13 14 15 16 16 16 16 16 16 16 16 16 16 16 14 13 12 11 11 10 9 9 7 3 0 1 2 3 4 4 4 5 6 8 11 14 17 16 14 14 15 15 14 12 10 9 7 6 5 4 4 3 3 4 5 6 6 5 3 2 4 8 9
3 4 2 1 1 2 3 5 7 9 10 11 11 12 13 14 14 15 16 15 14 14 13 13 14 15 17 18 18 18 18 18 17 17 16 16 15 14 13 12 11 10 9 8 7 5 4 5 6 7 7 7 7 9 13 15 15 15 15 13 13 14 14 13 11 10 8 6 5 4 4 4 3 3 4 4 5 6 6 5 4 3 4 7 9
4 3 3 3 3 2 3 3 4 6 7 8 8 9 10 11 12 13 14 14 14 14 14 14 14 15 17 18 18 18 17 17 17 17 16 15 15 14 14 12 12 11 10 10 9 8 8 10 12 13 13 12 12 15 17 17 15 12 11 12 13 13 12 11 9 7 6 4 4 4 3 2 2 2 3 4 4 5 5 4 4 3 4 6 7
4 4 4 4 4 3 4 4 3 3 4 5 5 6 7 8 10 11 11 11 11 12 13 14 15 15 16 17 17 17 17 17 18 17 17 16 15 14 14 13 12 12 12 11 11 13 15 17 18 19 18 17 17 17 16 15 13 12 12 12 11 11 9 8 7 5 5 4 4 3 2 1 1 2 3 3 4 5 5 4 4 4 4 5 5
3 4 5 5 5 5 6 6 5 3 2 2 2 4 6 7 8 9 9 9 9 10 11 12 14 15 16 17 18 18 18 18 19 19 19 17 15 14 14 14 14 15 15 16 18 19 21 22 22 22 21 20 18 17 15 14 13 12 10 10 9 7 6 5 4 4 3 3 2 2 2 2 2 2 2 2 3 5 5 6 5 5 4 5 6
3 4 6 7 7 8 8 8 6 5 4 3 1 3 5 7 8 8 8 8 9 9 9 10 11 12 13 15 16 17 18 18 19 19 19 18 17 17 17 18 19 20 21 22 21 21 21 21 19 19 18 16 15 14 13 12 11 10 9 8 6 5 4 3 2 2 1 2 2 3 3 4 3 3 3 3 4 5 6 6 6 5 4 5 6
3 4 4 5 6 6 7 7 7 6 6 5 4 3 5 6 6 6 6 7 8 9 9 9 9 9 9 10 11 12 14 15 16 16 17 17 17 18 18 19 19 19 19 19 19 18 17 16 15 15 14 14 13 12 12 11 9 8 7 6 5 4 3 2 1 1 1 2 3 3 4 4 4 4 4 4 5 6 6 6 6 6 6 6 6
5 4 4 4 4 5 6 6 6 7 8 8 6 5 5 5 5 5 4 5 7 8 9 9 8 8 8 9 9 10 11 12 12 13 13 13 13 13 13 13 13 14 14 15 14 14 13 13 13 13 12 12 11 11 10 9 8 7 7 6 6 5 5 4 3 3 2 2 2 2 2 2 3 3 4 5 5 6 6 6 7 7 7 7 5
7 6 6 5 6 6 7 7 6 6 8 9 8 7 5 4 4 5 4 4 5 6 7 8 8 7 7 8 9 9 10 11 11 11 11 11 10 10 9 9 9 10 11 11 11 12 11 11 11 11 10 10 9 9 8 8 7 7 6 5 5 5 5 5 4 4 4 3 3 2 1 1 1 2 3 4 4 5 5 6 6 7 7 6 5
Wind_Direction
195 196 196 196 197 196 197 197 194 192 187 185 185 184 186 189 187 186 181 178 178 177 176 174 172 173 174 171 168 176 180 168 163 165 163 162 162 156 150 154 157 144 131 125 119 118 123 129 139 146 151 158 166 175 184 189 194 200 208 214 208 180 164 150 137 149 173 179 174 175 173 164 157 152 152 152 149 148 150 150 148 141 137 136 132
191 194 195 196 198 200 200 199 196 193 189 187 187 187 190 193 192 191 185 181 181 181 180 178 176 173 172 173 175 182 188 185 178 176 171 165 160 154 146 141 140 135 130 129 121 115 120 125 140 154 164 172 177 184 191 198 206 213 220 229 227 212 195 167 149 154 171 179 180 181 177 173 169 164 161 159 159 159 158 158 157 152 152 152 153
189 190 193 195 198 200 199 198 196 193 190 189 188 190 194 195 194 192 186 183 185 185 183 181 179 176 175 180 181 181 187 193 188 182 179 176 169 162 154 144 141 136 130 129 122 115 116 115 120 142 168 184 188 193 201 209 218 227 231 237 236 224 208 193 169 165 173 177 182 186 182 177 176 175 171 170 171 173 173 174 175 174 175 177 183
187 187 189 192 195 197 196 195 193 192 191 189 189 192 195 194 194 193 188 186 188 188 187 184 181 178 178 182 180 176 181 191 190 183 183 185 182 174 163 153 150 147 141 136 127 115 115 120 122 129 159 193 200 202 211 218 225 235 240 241 239 226 206 197 189 178 179 179 182 189 190 186 183 180 179 182 187 192 195 201 202 203 209 212 218
189 189 191 191 192 193 193 192 192 192 191 190 191 194 194 193 195 194 191 190 188 186 186 186 183 180 178 179 177 174 178 189 195 189 186 189 190 190 189 180 169 163 162 163 156 140 131 145 151 146 160 198 208 209 217 224 228 239 248 244 236 220 202 197 200 195 187 182 181 187 194 195 194 193 192 194 200 206 212 221 226 226 229 230 230
190 192 192 190 191 192 190 189 190 190 191 192 194 195 193 193 196 195 193 193 188 183 183 188 189 185 183 182 180 182 188 196 202 199 195 199 204 214 221 210 196 190 190 195 190 173 157 164 166 160 167 196 204 204 210 217 221 227 231 227 215 202 197 200 206 207 193 185 183 188 194 198 203 206 206 206 212 220 222 225 228 226 221 212 198
193 198 194 191 191 190 189 191 191 189 190 193 194 195 194 195 197 196 196 198 192 184 183 190 192 190 190 191 189 192 201 207 212 215 215 220 225 230 231 224 218 215 218 217 210 199 180 172 176 171 172 196 206 199 199 201 198 188 184 184 186 188 192 199 204 201 190 185 185 189 195 200 207 215 217 213 212 218 221 212 187 173 173 169 162
194 200 197 194 193 190 186 187 187 185 186 187 186 189 191 194 201 204 206 206 198 193 193 195 194 194 197 201 200 201 210 217 223 230 235 236 236 238 237 233 228 225 228 228 221 219 213 202 202 197 194 208 231 236 231 206 192 180 174 174 179 188 193 196 196 193 188 185 184 187 192 195 202 210 210 204 200 200 204 199 177 163 163 162 161
186 189 190 191 191 190 184 181 182 184 181 176 175 182 188 195 207 215 219 216 206 204 207 206 203 203 204 207 210 212 218 225 231 238 244 246 243 242 240 236 233 233 235 234 231 232 233 232 234 238 236 234 238 250 259 262 252 223 204 194 191 193 194 195 195 191 187 185 182 182 183 183 188 192 190 190 193 191 191 190 176 164 165 167 169
165 166 174 179 182 182 181 181 184 190 190 186 188 194 198 206 216 221 225 223 214 213 216 215 213 212 211 211 215 220 226 233 240 245 250 253 251 248 246 241 239 241 241 240 242 244 246 248 250 251 251 247 242 240 242 247 251 245 231 221 215 210 203 199 197 193 189 186 183 180 176 172 175 181 181 183 188 185 182 183 172 163 167 173 181
143 148 161 169 167 164 172 180 182 188 194 195 196 198 204 215 223 224 226 227 222 221 222 222 222 222 222 219 219 224 230 236 244 250 253 256 254 252 253 251 248 249 249 250 253 253 254 256 256 254 253 250 245 238 233 231 233 232 225 216 214 218 217 206 195 191 189 185 182 182 181 175 174 179 178 173 170 167 165 167 164 159 164 173 187
106 106 119 164 165 154 168 182 182 188 195 198 201 205 209 218 224 224 226 228 227 229 229 229 230 232 234 233 229 230 236 242 249 253 255 257 255 252 252 253 253 256 257 258 259 260 260 260 259 257 256 253 248 240 231 222 218 219 217 208 202 202 206 206 198 194 193 187 180 180 183 180 174 173 173 166 161 157 153 152 153 153 158 170 199
79 76 73 85 129 159 180 195 191 189 194 201 210 214 213 216 221 223 225 226 229 235 240 241 240 240 241 242 242 243 247 252 254 255 256 255 253 251 249 251 254 257 259 260 261 262 261 259 258 257 256 253 247 238 228 219 213 211 210 206 202 200 204 211 211 209 209 203 192 186 185 184 177 170 168 169 168 163 157 155 159 168 202 239 241
70 70 71 74 82 103 138 171 171 151 169 194 206 211 215 217 220 225 229 232 236 241 246 248 248 247 246 247 249 251 251 252 251 250 251 252 250 249 249 250 253 256 259 261 262 261 259 258 259 257 253 247 240 232 223 216 211 208 206 204 206 211 214 214 213 209 205 202 199 191 180 176 175 170 167 169 173 172 168 173 186 202 223 234 236
63 64 68 69 73 81 94 109 118 120 141 187 196 203 217 226 231 236 241 246 249 250 250 251 250 248 248 249 249 249 250 250 248 247 247 248 249 249 250 251 253 256 259 260 260 259 259 260 259 256 250 241 232 226 220 214 209 205 204 205 206 210 209 203 200 198 191 183 183 180 170 165 169 171 169 170 176 180 176 173 180 196 196 185 197
59 60 64 66 69 73 81 89 97 108 125 150 162 172 190 227 247 257 258 256 260 258 252 251 251 251 252 253 253 253 253 252 253 255 256 257 257 255 253 254 256 258 259 258 258 259 259 258 255 250 242 233 225 220 216 212 209 204 201 200 199 198 194 188 185 186 185 180 176 176 171 169 172 173 172 172 175 174 166 151 157 180 180 178 206
58 57 60 65 69 72 74 77 80 87 96 102 103 99 79 69 31 343 294 266 270 269 258 254 258 263 265 265 263 260 258 257 259 263 266 268 267 263 259 259 260 261 261 260 260 261 259 255 249 241 234 227 220 215 213 213 211 205 197 190 187 183 175 170 169 170 172 170 168 168 167 165 168 169 165 168 177 191 227 230 205 202 221 242 244
58 59 60 64 70 73 74 74 74 74 76 78 76 72 70 70 67 58 25 278 267 275 273 273 278 285 289 287 281 276 271 267 266 267 270 272 272 269 265 264 265 265 263 262 261 260 256 249 241 234 230 224 219 215 214 213 209 203 196 188 182 175 167 164 162 159 160 161 160 159 160 160 164 169 169 176 192 216 246 249 236 244 281 312 310
57 61 61 63 66 69 71 71 70 69 67 67 67 65 65 66 67 69 70 63 353 293 295 296 301 311 310 287 281 286 287 280 275 276 277 276 275 272 269 269 269 268 266 263 261 256 248 238 232 231 230 226 221 216 210 206 204 200 194 187 181 175 170 169 168 164 162 162 161 160 162 163 167 173 175 179 192 218 264 288 0 13 20 20 354
57 61 61 60 59 60 60 61 61 61 61 60 59 58 59 61 63 65 66 64 57 34 5 343 326 320 304 273 275 287 290 284 279 277 276 275 273 271 270 270 271 271 269 265 260 252 243 233 227 228 228 226 221 213 205 203 205 203 198 194 190 183 176 173 173 173 171 168 166 166 166 165 167 170 168 165 161 135 95 82 70 53 41 27 357
61 63 62 61 58 56 55 54 53 53 53 52 51 51 52 53 55 56 55 54 54 52 43 34 26 17 1 332 315 310 300 291 287 282 278 275 271 268 267 267 266 267 268 265 259 250 243 235 228 224 224 221 218 213 209 209 211 211 211 213 209 198 186 180 177 177 176 172 168 166 165 164 163 161 158 149 135 117 103 89 69 47 26 7 333
67 65 63 62 60 58 58 57 56 55 54 52 51 51 49 47 47 47 43 38 37 36 34 32 30 30 32 28 20 8 348 326 311 303 297 287 275 268 266 265 262 261 263 263 258 252 246 242 235 228 223 219 216 217 217 216 215 215 217 218 213 203 194 187 181 178 176 172 169 166 165 164 159 153 147 138 126 113 96 77 48 19 0 346 326
65 63 61 60 59 58 57 57 57 56 54 52 52 50 46 42 41 40 36 30 24 20 17 13 8 8 10 12 16 17 11 1 351 340 328 312 290 275 268 265 263 260 259 259 257 256 253 248 241 234 227 221 218 218 220 220 218 215 214 213 209 202 194 187 182 179 175 172 170 166 162 160 155 146 139 130 120 106 82 54 23 3 356 347 333
55 55 56 56 54 53 52 51 51 51 49 48 48 47 44 41 38 36 33 29 26 21 16 9 2 358 352 347 349 355 356 356 357 354 347 337 317 294 279 270 265 262 261 259 256 256 257 251 244 235 228 222 219 218 220 220 218 214 211 209 204 197 191 186 182 180 176 172 171 165 159 157 151 141 134 125 112 97 66 34 16 12 13 9 6
44 47 49 49 48 46 43 42 43 43 43 43 44 45 44 42 41 40 36 33 31 28 24 18 11 4 355 345 345 346 343 341 342 342 339 337 331 322 305 288 275 270 269 266 261 257 257 256 248 237 229 223 219 217 217 218 218 216 212 206 198 192 190 187 185 183 179 175 170 163 155 151 144 135 126 112 98 81 49 31 28 31 34 36 40
40 43 41 39 37 35 33 34 34 33 33 35 37 41 42 42 43 44 43 40 36 32 29 25 21 15 6 355 350 352 352 349 343 336 333 330 328 327 321 306 291 286 285 281 271 261 256 256 252 242 232 223 216 213 211 210 209 205 199 194 190 190 191 191 190 187 180 173 167 158 151 145 137 127 115 100 88 72 48 40 42 44 41 33 27
38 39 37 34 33 30 29 29 27 26 26 26 28 31 34 36 37 36 36 35 32 28 24 20 15 10 4 357 352 352 357 2 -0 352 342 334 324 312 301 289 285 289 291 288 279 269 262 261 261 251 232 215 207 207 203 193 183 175 174 179 186 191 196 197 194 187 177 168 161 152 146 140 130 119 108 96 90 78 55 47 45 37 18 3 0
41 44 44 43 41 37 33 30 27 26 25 25 26 28 27 30 34 35 32 27 21 18 16 11 5 360 354 350 346 344 347 353 355 353 345 336 325 308 289 278 277 279 279 274 267 263 261 262 262 248 219 204 196 189 178 168 162 161 165 173 181 188 193 192 186 177 168 161 154 147 142 136 127 118 112 108 109 96 56 41 30 10 355 353 354
54 55 53 49 45 39 35 32 29 28 28 27 28 29 25 24 27 30 29 25 17 12 9 6 2 355 347 344 341 338 338 339 340 339 336 332 327 314 298 289 280 271 269 266 254 242 235 230 224 210 197 189 178 169 163 156 155 157 159 164 170 174 177 178 173 166 159 153 147 144 141 136 130 127 128 134 144 140 62 9 356 349 349 353 352
61 58 52 46 41 37 37 38 36 33 29 23 21 24 27 27 27 25 22 17 11 7 8 5 359 350 342 337 333 330 330 328 325 323 323 324 324 318 306 295 279 266 262 256 238 221 213 208 203 200 193 182 174 174 171 164 164 166 163 164 168 169 167 167 163 157 150 141 139 144 145 141 140 146 155 167 177 183 237 319 334 341 347 351 347
61 56 49 44 43 44 45 45 39 34 29 22 18 18 21 25 29 30 26 16 9 10 11 2 350 342 337 332 326 322 321 321 319 317 315 314 318 318 310 294 272 256 246 234 228 230 229 219 208 201 194 188 185 183 178 172 174 175 169 166 171 175 173 172 170 163 155 147 150 157 156 152 157 168 174 179 189 213 275 312 327 335 340 344 343
56 52 49 50 54 56 52 45 38 34 32 29 25 21 17 15 14 14 17 18 19 19 14 1 348 338 331 327 326 326 325 325 325 323 318 314 312 313 310 292 256 234 227 226 234 239 233 221 210 201 196 192 188 184 179 176 178 177 174 175 179 183 186 188 184 177 172 170 170 171 169 168 173 180 184 188 206 247 291 307 317 322 328 336 339
52 52 56 61 62 57 47 41 38 37 35 32 28 24 19 14 6 0 1 7 13 16 17 13 2 349 337 328 326 328 329 331 333 333 330 324 318 314 307 278 235 222 224 231 237 234 226 218 213 207 201 194 188 183 180 178 178 178 180 184 187 188 190 191 184 177 177 179 179 177 177 179 182 187 192 203 227 261 281 287 291 300 316 333 345
57 60 65 66 60 50 42 38 37 37 35 31 27 23 20 17 11 3 359 360 1 3 11 18 17 8 359 349 339 334 333 333 334 335 336 335 331 324 307 259 230 226 231 236 236 230 224 218 215 212 206 198 192 187 183 182 182 182 185 193 198 195 189 184 180 177 178 181 181 181 183 186 190 194 200 208 222 240 251 257 264 277 302 341 1
69 70 70 66 55 45 39 37 36 34 31 27 25 23 21 21 18 14 8 3 358 358 3 10 14 15 15 11 2 353 347 342 339 338 338 340 342 342 333 273 240 235 235 234 232 230 227 222 219 216 210 203 197 192 189 187 186 185 188 195 197 190 182 178 178 179 181 183 184 185 187 190 193 196 199 206 217 232 241 241 243 254 297 357 3
74 72 71 64 53 44 39 37 36 34 30 26 23 24 25 25 21 16 13 9 3 359 360 2 3 8 16 20 16 9 3 357 349 344 343 348 353 357 356 322 268 252 244 238 236 236 236 235 236 233 224 215 209 205 201 196 191 188 190 193 190 183 178 177 177 179 182 185 187 189 189 191 191 190 195 206 221 231 231 218 212 226 350 3 357
74 74 71 62 51 45 43 41 36 32 29 26 24 25 28 27 23 20 16 10 5 2 -0 359 360 2 6 11 11 9 8 6 356 344 342 353 2 3 354 325 295 277 264 255 251 251 251 250 249 246 236 228 223 221 220 217 206 197 193 191 187 182 180 178 176 176 181 186 189 191 190 187 185 187 196 210 210 205 202 188 171 131 5 355 347
77 78 70 58 51 48 45 41 35 31 28 26 27 30 33 31 28 24 19 12 7 4 1 2 4 3 0 359 359 360 2 5 4 353 344 349 0 6 4 352 330 307 298 291 276 264 258 255 252 247 238 232 229 227 225 221 213 202 195 193 190 186 182 178 174 176 181 185 186 186 184 181 183 189 201 205 192 180 174 166 150 109 14 344 338
82 79 63 50 51 50 43 35 32 30 27 27 31 36 38 36 31 25 19 14 11 9 6 6 6 4 358 354 353 354 357 4 12 9 -0 353 352 354 0 6 5 350 334 323 298 268 256 254 252 245 235 227 223 220 217 213 206 199 196 197 194 187 181 176 173 174 177 180 180 180 180 183 186 190 195 193 179 155 159 165 163 145 342 335 339
81 73 56 48 51 49 38 32 31 29 27 29 34 40 41 37 32 25 19 16 14 14 13 10 7 4 0 357 355 354 356 3 12 11 7 4 0 352 349 358 6 6 357 336 302 271 265 269 260 245 230 218 212 207 204 203 201 197 196 197 192 183 175 170 168 171 173 176 178 180 182 186 187 190 194 194 181 170 177 182 190 257 332 342 345
69 68 63 58 55 47 38 33 30 27 28 31 36 42 45 41 34 27 22 19 17 18 18 15 9 6 4 3 3 1 1 5 11 10 7 5 5 4 1 355 349 350 353 346 311 275 296 0 160 189 188 183 181 180 180 187 194 194 189 183 177 172 169 167 169 172 174 175 178 180 183 188 191 194 195 195 196 200 202 202 218 292 340 351 343
75 87 82 66 56 46 39 34 30 27 27 31 38 47 49 45 38 29 22 19 18 17 16 13 12 13 13 11 12 13 13 14 15 14 11 7 5 6 9 4 352 344 348 354 351 312 281 240 189 184 170 151 149 156 161 167 178 177 170 165 165 172 177 175 172 172 172 173 177 183 189 195 199 196 190 196 206 211 213 223 246 291 336 346 342
125 121 89 47 35 38 35 32 31 29 27 30 41 52 54 49 41 31 23 18 16 14 13 12 13 18 22 23 22 23 24 23 22 21 19 15 12 13 16 12 4 356 355 2 14 29 92 148 160 166 147 127 133 150 149 149 155 157 155 157 167 179 180 175 171 171 175 178 182 190 195 193 194 195 195 205 216 216 217 233 261 292 324 337 344
152 143 131 328 332 20 22 15 21 28 28 29 40 53 58 55 46 37 31 25 19 16 16 17 19 24 27 28 27 27 29 30 29 28 27 25 25 29 30 24 17 17 21 29 43 67 85 84 88 99 103 102 111 123 129 133 140 144 146 155 169 175 175 173 171 171 174 177 178 179 180 178 185 203 213 219 221 217 218 237 266 292 320 334 343
209 200 209 246 279 324 336 332 355 19 25 25 34 52 61 60 52 46 40 32 25 22 22 25 30 35 37 37 35 34 36 38 38 36 35 34 35 39 41 39 37 42 50 55 62 72 79 82 88 95 101 106 117 127 131 134 139 143 147 155 163 165 165 166 165 161 160 159 154 151 155 164 185 218 233 230 219 209 214 239 270 296 327 339 340
233 233 231 244 269 295 299 292 302 345 8 14 30 52 64 65 60 52 44 37 33 33 33 36 40 42 44 46 47 46 48 49 49 48 46 43 43 46 49 50 51 55 62 72 82 89 93 96 100 104 108 112 116 121 124 126 130 137 142 147 150 150 150 151 152 151 154 157 153 150 160 183 212 238 251 239 211 206 220 247 271 292 316 330 329
243 238 241 251 264 276 280 276 271 271 293 322 36 67 74 75 69 57 45 40 42 44 44 46 49 51 53 55 56 56 57 57 56 56 55 54 56 61 66 69 72 77 84 92 98 100 101 102 105 106 108 111 112 114 116 118 120 124 127 129 130 132 137 143 150 159 170 183 200 218 232 245 248 250 261 253 222 220 236 256 268 280 300 325 335
260 252 256 262 265 267 269 266 259 255 259 256 195 103 93 87 77 62 47 40 44 48 46 45 48 53 57 61 63 63 64 65 65 64 65 66 69 74 79 82 86 89 91 92 94 94 95 97 98 99 100 101 103 105 108 110 111 113 115 117 120 125 134 146 160 178 203 237 255 256 256 261 259 257 260 251 235 234 244 257 266 272 287 316 330
282 274 273 277 278 276 274 270 266 262 256 245 217 155 123 106 87 69 52 42 44 47 43 39 39 42 46 54 60 63 65 68 69 70 71 73 75 79 82 85 86 87 87 86 86 85 86 86 87 88 90 91 92 95 96 96 95 96 94 91 88 83 75 58 31 6 321 290 278 269 265 265 260 254 247 237 235 240 248 259 271 281 290 301 310
299 292 287 290 295 296 292 287 280 268 254 240 221 189 158 133 104 85 74 61 52 44 35 34 38 40 40 44 52 57 61 65 68 70 72 75 78 81 83 85 85 85 85 85 85 84 84 84 84 84 84 84 83 84 83 80 77 74 70 66 62 57 50 41 32 23 5 340 318 292 277 265 248 240 239 240 246 254 258 264 275 286 291 293 297
296 292 281 279 288 291 289 287 288 280 260 242 224 205 188 165 126 105 94 74 48 26 14 19 31 41 45 48 50 54 60 63 64 66 68 70 71 72 74 77 80 82 84 86 88 88 87 86 84 81 79 77 76 74 73 71 68 65 61 56 48 41 37 32 25 20 16 11 10 6 357 348 245 242 252 263 270 274 276 278 282 284 286 287 293
Height
796 799 801 802 803 805 806 808 810 812 813 815 817 818 820 821 822 823 825 826 827 828 830 831 831 833 834 835 836 837 839 840 841 842 843 844 845 846 846 847 848 849 849 850 850 851 851 851 852 853 854 855 857 858 859 860 861 862 862 862 863 864 865 865 867 869 872 873 875 876 876 877 878 879 880 880 881 882 883 883 884 884 885 886 886
794 797 800 802 803 805 805 807 809 810 812 814 816 817 819 820 822 823 824 826 827 828 829 830 831 832 834 835 836 837 839 841 841 842 843 844 845 846 847 848 849 849 850 851 851 852 852 852 853 854 855 856 857 859 860 860 861 862 862 862 863 864 865 866 867 869 871 873 874 875 876 877 878 879 880 880 881 882 883 883 884 885 885 885 886
794 797 800 802 804 805 805 806 808 810 812 813 815 816 818 820 821 823 824 826 827 828 828 829 830 832 834 835 836 837 839 841 842 843 844 845 846 847 848 849 849 850 851 851 852 853 853 853 854 855 856 857 858 859 860 861 861 862 862 862 863 864 865 866 867 869 871 873 874 875 876 877 878 879 880 881 881 882 882 883 884 884 884 885 885
796 797 799 802 803 805 805 807 808 809 812 813 814 816 818 820 822 823 825 826 827 828 828 829 830 831 833 835 836 837 839 841 843 844 844 846 847 848 848 849 850 851 851 852 852 853 854 854 855 856 856 857 858 858 859 860 861 861 861 862 862 863 865 867 867 869 870 872 874 875 876 877 878 879 880 880 881 882 882 882 883 883 884 884 884
796 797 799 800 802 804 805 806 808 809 812 813 815 816 818 820 822 823 825 826 827 827 828 829 830 831 833 835 836 837 839 841 843 844 845 846 847 848 849 850 850 851 852 852 853 853 854 855 855 856 857 857 858 858 858 859 860 860 860 860 861 862 864 866 867 868 869 871 873 874 876 876 877 878 879 880 880 881 881 881 882 882 883 883 883
796 797 798 800 801 803 804 805 807 809 811 813 815 816 818 820 821 823 825 826 827 827 828 829 831 832 834 835 836 838 840 841 843 844 845 846 847 848 849 849 850 851 852 852 853 854 854 855 856 856 857 857 857 858 858 858 858 859 859 859 860 861 863 865 866 867 868 869 871 873 874 875 876 876 877 878 879 879 880 880 880 881 881 882 883
797 798 799 800 802 803 804 806 807 808 811 813 815 816 818 819 821 823 824 825 826 827 827 829 831 833 835 836 837 838 840 842 843 844 845 846 847 848 848 849 850 851 852 852 853 854 855 855 856 857 857 857 857 858 858 858 858 858 858 859 859 860 862 863 864 865 866 868 869 871 872 873 874 874 875 876 877 878 878 879 879 880 881 881 882
797 798 799 800 801 803 804 806 808 809 811 813 816 818 819 820 822 823 824 825 826 827 828 830 831 833 835 836 837 838 840 841 843 844 845 846 847 848 848 849 849 850 851 852 853 854 854 855 856 856 857 857 857 858 858 858 858 858 858 859 859 860 861 862 863 864 865 866 868 869 870 871 872 873 874 875 875 876 877 877 878 879 880 880 881
796 797 798 800 801 803 805 806 808 810 812 814 817 820 821 822 823 823 824 825 826 827 829 830 831 833 834 836 837 838 839 841 842 844 845 846 847 848 848 848 849 850 850 851 852 853 853 854 855 855 856 856 857 857 857 857 858 858 858 859 859 860 861 862 862 863 864 866 867 868 869 870 871 872 872 873 874 875 875 876 877 878 879 880 880
797 799 800 802 803 804 805 806 807 810 813 814 816 819 820 821 822 823 824 825 826 827 829 830 832 833 833 834 836 837 838 840 842 843 845 846 846 847 848 848 848 849 849 850 851 851 852 853 854 854 854 855 855 856 856 856 856 857 858 858 859 860 860 861 862 863 864 865 866 867 868 869 870 871 871 872 873 874 875 876 876 877 878 879 880
800 801 802 804 805 806 807 808 808 810 812 813 815 816 818 820 821 822 823 824 825 827 829 830 832 833 833 834 835 836 838 840 841 843 844 845 846 846 847 847 848 848 848 849 849 850 851 851 852 852 853 853 854 854 854 855 855 856 856 857 858 859 860 861 862 863 864 865 866 867 868 869 870 870 871 872 873 873 874 875 876 877 878 878 879
802 803 804 805 806 807 809 810 810 810 811 813 814 816 817 819 820 822 823 824 825 827 829 830 832 833 834 834 835 836 837 839 841 842 843 844 845 845 846 846 847 847 847 848 848 849 849 849 850 850 851 851 851 852 853 853 854 855 855 856 857 858 859 860 861 862 863 864 865 866 867 868 868 870 870 871 872 873 874 875 875 876 877 877 878
803 804 805 806 807 808 810 812 812 812 813 814 815 817 818 819 820 822 823 824 826 827 829 830 831 833 833 834 835 836 837 839 840 841 842 843 844 844 845 845 845 845 846 846 846 847 847 847 848 848 848 848 849 850 851 852 853 854 855 856 857 858 859 860 861 862 862 863 864 865 865 866 867 868 869 870 871 872 873 874 874 875 875 876 876
805 806 807 807 808 809 810 812 813 814 816 816 816 818 818 819 820 821 823 825 826 827 828 830 831 832 832 833 834 836 836 837 839 840 841 842 843 843 843 843 844 844 844 844 845 845 845 845 846 846 846 846 846 847 848 850 851 852 854 855 856 857 858 859 860 861 861 862 863 863 864 865 866 867 869 870 871 872 872 873 874 874 874 875 875
809 809 809 809 810 811 811 813 813 815 816 816 816 818 819 820 820 821 823 824 826 827 828 829 830 831 831 832 833 834 835 836 838 839 840 841 841 842 842 842 842 842 842 843 843 843 844 844 844 844 844 844 845 846 847 848 849 851 852 854 855 856 857 858 859 860 860 861 862 862 863 864 865 867 868 869 870 871 872 872 873 873 873 873 874
813 813 812 812 813 813 814 814 815 816 817 817 817 818 819 820 821 822 823 824 826 827 827 828 830 830 830 831 832 833 834 835 836 837 839 840 840 840 840 840 840 840 841 841 841 842 842 842 842 842 843 843 844 845 846 847 849 850 851 853 854 855 856 857 858 859 860 860 861 862 863 864 865 866 867 868 869 870 871 872 872 872 872 872 873
818 818 817 817 816 816 817 817 817 818 818 818 819 819 820 821 821 822 823 824 826 827 828 828 829 830 830 831 832 833 833 834 834 835 837 838 839 839 839 839 839 839 839 840 840 840 840 841 841 841 841 842 843 844 846 847 848 849 851 852 853 854 855 856 857 858 859 860 861 862 863 864 865 866 867 868 869 870 870 871 871 871 872 872 872
822 823 822 822 821 820 820 820 820 820 820 820 821 822 822 822 822 823 823 824 826 827 827 828 828 829 830 831 831 832 833 833 834 834 836 837 837 837 838 838 837 837 838 838 839 839 839 840 840 840 840 841 842 843 844 845 847 848 849 850 852 853 854 855 856 857 858 859 860 861 863 864 865 866 867 867 868 869 870 870 871 871 871 871 872
826 826 826 826 825 824 823 823 823 823 823 823 823 824 824 823 823 824 824 824 825 826 826 826 827 829 830 831 831 831 832 832 833 833 834 835 835 836 836 836 836 836 836 837 837 838 838 839 839 839 840 841 842 843 843 844 846 847 848 849 850 852 853 853 854 856 857 859 860 861 862 863 864 865 866 867 867 868 869 870 870 871 871 871 871
831 830 829 828 827 826 825 825 825 825 824 824 825 825 825 825 825 825 825 826 826 826 826 826 827 828 829 830 830 830 830 831 831 832 833 833 833 834 834 834 834 834 835 836 836 837 837 837 838 839 840 841 841 842 843 844 845 846 847 848 849 850 851 853 854 855 856 858 859 860 862 863 864 865 865 866 867 868 869 870 870 871 871 871 871
835 834 832 830 829 828 827 827 827 827 826 826 827 827 827 827 826 826 827 828 828 827 828 828 828 829 829 829 829 830 830 830 830 831 831 831 831 831 831 832 832 833 834 834 835 835 836 836 837 838 839 840 840 841 842 843 845 846 847 848 849 850 851 852 853 855 856 857 858 860 861 862 863 864 865 866 867 868 869 870 870 871 871 871 871
837 836 834 833 831 831 830 830 830 829 829 828 828 828 828 827 827 827 828 829 829 829 829 829 829 829 830 830 830 830 830 830 830 830 830 830 829 829 829 830 831 831 832 833 834 834 835 835 836 837 837 838 839 840 841 842 843 845 846 848 849 849 850 851 852 854 855 856 858 859 861 862 863 864 864 865 866 867 868 869 870 870 870 869 869
837 836 835 834 834 834 834 833 832 832 831 831 830 829 828 828 827 827 828 829 830 830 830 830 829 829 830 830 830 830 830 830 829 829 829 829 829 828 828 829 830 831 831 831 832 833 834 834 835 835 836 836 837 838 839 840 841 843 845 847 847 848 849 850 852 853 855 856 857 859 860 861 862 863 864 865 866 867 868 868 869 869 868 868 868
836 836 835 835 835 835 836 835 834 833 833 832 831 830 830 829 828 828 828 829 829 829 829 829 829 829 829 829 829 830 830 829 829 829 828 828 828 828 828 829 829 830 830 831 831 832 832 833 833 834 834 834 835 836 837 838 840 841 843 845 846 847 848 850 851 853 854 856 857 858 860 861 861 863 863 864 865 866 867 868 868 868 868 867 867
836 835 835 835 835 836 836 835 834 834 834 833 833 832 831 831 830 830 830 829 829 830 830 830 830 830 829 829 829 829 829 829 829 828 828 827 827 828 829 829 829 830 830 830 831 831 831 831 831 832 832 833 834 835 836 838 839 841 842 843 845 846 848 849 851 852 853 855 856 857 859 860 861 862 863 864 865 866 867 867 867 867 867 867 867
836 835 835 835 835 835 834 834 833 833 833 833 832 832 832 832 832 832 832 831 831 831 831 832 832 831 831 831 830 830 830 829 829 828 828 827 827 827 828 829 829 830 829 830 830 829 829 829 830 830 831 832 833 834 835 836 837 839 841 843 845 846 848 849 851 852 853 855 856 857 858 859 860 861 862 863 864 865 866 866 866 867 867 867 867
836 836 835 835 835 834 833 833 832 832 832 832 832 831 831 831 831 831 831 831 831 831 831 831 831 831 830 830 829 829 829 829 828 828 828 828 827 827 827 828 828 828 828 828 829 828 828 828 829 830 831 832 833 833 834 835 836 837 841 844 846 848 850 851 852 853 854 855 856 857 858 859 860 861 862 863 864 865 865 865 866 866 866 866 866
836 836 836 836 835 834 834 833 833 832 832 831 831 831 831 831 831 831 830 830 830 830 830 830 829 829 829 828 827 826 827 827 827 827 827 827 826 825 825 825 826 825 825 825 826 826 827 828 829 830 831 831 832 833 835 837 838 839 841 844 847 850 852 853 854 854 854 855 855 856 857 858 859 860 862 863 864 864 865 865 865 865 865 864 864
838 837 837 836 836 835 834 834 833 833 832 832 831 831 831 831 831 831 831 831 830 830 830 830 829 829 829 828 827 826 826 826 826 826 825 825 824 823 823 822 823 823 823 823 822 823 825 826 827 829 831 831 832 833 835 837 839 840 842 844 847 850 853 855 855 855 855 855 855 855 856 857 858 860 862 863 864 864 864 864 864 864 863 863 863
839 839 838 838 837 837 836 835 835 834 833 832 832 831 831 831 831 831 831 831 831 831 830 830 829 828 828 827 827 826 825 825 825 824 824 823 822 822 820 820 820 820 821 822 822 822 823 823 823 825 827 829 831 833 834 835 838 840 842 844 847 850 852 854 855 855 854 854 854 855 856 857 858 860 862 863 863 863 863 863 863 863 862 862 862
840 840 840 839 839 838 838 837 836 836 834 833 832 831 830 830 830 831 831 831 830 830 830 829 828 827 826 825 825 825 824 824 823 823 822 821 820 819 818 818 818 818 819 820 820 821 822 822 822 822 823 824 826 828 830 833 836 839 841 844 847 849 851 852 853 853 853 853 854 855 856 857 858 860 861 862 862 862 862 862 861 861 861 861 861
841 841 841 841 840 840 839 839 838 837 836 835 834 833 831 830 829 829 830 830 830 829 829 828 827 826 825 824 823 823 823 822 822 822 821 819 818 817 816 816 816 817 818 818 819 818 819 819 820 820 821 821 822 823 826 829 833 836 839 841 844 846 848 849 850 851 851 853 854 855 856 856 858 859 860 860 861 861 860 860 860 860 860 860 860
842 842 841 841 841 841 840 840 839 838 837 837 836 835 834 833 831 829 828 829 829 829 829 828 827 826 825 824 823 822 821 821 820 820 819 818 817 816 815 814 815 817 817 818 817 817 816 816 816 817 818 819 819 820 822 825 829 833 836 839 842 844 845 847 848 849 850 852 853 854 855 856 857 858 858 859 859 859 859 859 860 860 860 859 859
843 843 842 842 842 841 841 840 840 839 839 838 837 837 836 835 834 832 829 828 827 827 828 828 828 826 825 824 823 822 821 820 819 819 818 817 815 814 814 814 815 816 817 816 816 816 815 814 814 813 814 816 816 817 818 820 823 826 831 836 840 842 843 845 847 848 849 850 852 853 854 855 856 856 857 857 858 858 858 858 859 859 859 858 857
844 844 843 843 843 843 842 841 841 840 840 839 838 838 837 836 835 834 833 831 830 828 828 828 827 827 825 824 823 822 821 820 819 818 817 816 815 814 813 814 814 815 815 815 815 815 815 814 814 814 815 816 816 816 816 817 818 821 826 830 835 838 840 843 845 847 848 849 851 852 853 854 855 855 856 856 857 857 857 857 858 858 857 856 856
845 845 845 845 844 844 843 843 842 842 841 840 839 838 837 836 835 835 835 834 833 831 829 828 828 827 826 825 823 822 821 820 819 818 817 816 815 814 814 814 814 814 814 815 815 815 815 815 817 818 818 819 819 819 819 819 820 822 825 828 831 834 837 840 842 844 846 849 850 852 852 853 853 854 855 855 856 856 856 857 857 856 855 855 855
846 846 846 846 845 845 844 844 843 843 842 841 840 839 838 837 837 836 836 835 834 832 831 829 828 826 825 824 823 822 821 820 819 818 818 816 816 815 814 814 814 814 813 814 814 814 815 815 817 818 819 820 820 820 821 822 823 824 827 829 831 833 835 837 839 842 845 847 849 850 851 852 852 853 853 854 855 855 856 856 855 854 854 854 855
847 847 847 847 847 846 846 845 845 844 843 842 841 840 839 839 839 838 837 836 835 834 832 830 829 827 825 824 823 822 821 820 819 818 818 817 816 815 815 814 814 813 813 812 811 812 813 813 815 816 817 817 818 819 820 821 822 824 827 830 832 833 834 835 837 839 842 845 848 849 850 850 851 852 853 854 854 855 854 854 854 854 854 855 854
848 848 848 848 848 847 847 846 846 845 844 843 842 841 841 841 840 839 838 837 836 835 833 831 830 828 827 825 823 822 821 819 819 818 817 817 816 815 815 814 814 813 813 811 811 811 812 812 812 813 814 815 816 817 818 819 820 822 825 829 832 833 833 833 835 838 841 844 846 847 848 849 850 851 852 852 853 853 853 853 854 854 854 854 853
849 849 849 849 848 848 848 848 847 846 845 844 843 843 843 842 842 841 840 838 837 836 834 833 831 830 828 826 825 823 821 820 819 819 818 817 816 816 815 815 814 814 813 812 812 812 812 811 811 812 813 814 815 816 818 819 821 822 825 829 832 834 833 833 835 838 841 843 845 847 848 849 849 850 850 850 851 851 852 853 853 854 854 853 853
849 849 849 849 849 849 849 848 848 847 847 846 845 844 844 844 843 842 841 839 838 836 835 834 833 831 830 828 826 825 823 822 821 820 819 818 817 816 816 816 815 814 814 813 813 813 812 812 812 813 814 814 816 817 818 820 822 823 825 828 832 835 836 837 837 839 841 843 845 846 847 848 848 849 849 849 850 851 852 853 853 853 853 853 852
850 850 850 850 850 850 850 850 849 849 848 847 846 846 845 845 844 843 842 841 839 838 837 835 834 833 831 829 828 826 824 823 822 820 819 818 818 817 817 816 815 815 814 814 813 813 813 813 813 814 815 816 817 818 819 820 822 825 827 829 832 835 837 838 839 840 842 843 844 845 846 847 847 847 848 848 849 850 851 852 852 853 853 852 851
850 850 851 851 851 851 850 850 850 850 849 848 848 847 847 846 846 845 843 842 841 839 838 837 835 834 832 831 829 827 825 824 823 821 820 819 818 818 818 817 816 816 815 814 814 814 814 814 814 815 816 817 818 819 820 822 824 826 828 830 833 836 837 839 840 841 842 843 844 845 845 846 846 846 847 848 849 850 851 851 852 852 852 851 850
850 851 851 851 851 851 851 851 851 851 850 850 850 849 848 848 847 846 845 844 842 841 840 839 837 835 833 832 830 828 827 825 824 823 822 821 819 819 819 819 818 817 817 816 816 816 816 816 815 815 816 817 819 820 823 825 827 829 830 832 835 837 839 840 841 841 842 843 843 844 844 845 845 846 846 847 848 849 850 850 851 851 851 850 850
850 851 851 851 851 852 852 851 851 851 851 851 851 850 850 849 849 848 847 846 844 843 842 840 839 837 835 833 832 830 829 828 827 826 824 823 822 821 821 820 820 819 819 818 818 818 818 818 817 817 818 820 822 823 825 827 830 831 833 835 837 838 839 840 841 841 842 843 843 843 844 844 845 845 846 847 847 848 849 850 850 850 850 850 849
850 851 851 851 852 852 852 851 852 852 852 852 852 851 851 850 850 849 848 847 846 845 844 843 841 839 838 836 835 833 832 831 829 828 827 826 825 824 824 823 823 822 822 821 821 821 821 821 822 823 824 826 827 828 829 831 833 834 836 837 838 839 840 840 841 841 842 842 843 843 844 844 844 845 845 846 847 847 848 849 849 850 850 849 849
850 850 851 851 851 851 851 851 851 852 852 852 852 852 851 851 850 850 849 848 847 847 846 845 843 842 840 839 837 836 835 834 832 831 830 829 829 828 827 827 826 826 825 825 826 826 826 826 827 828 830 831 831 832 833 834 836 837 837 838 839 839 840 840 841 841 842 842 843 843 843 844 844 844 845 845 846 847 848 848 849 849 849 849 848
850 850 850 851 851 851 851 851 851 851 852 852 852 852 851 851 851 850 850 849 849 848 847 846 845 844 843 841 840 839 838 837 836 835 834 834 833 833 832 831 831 830 830 830 831 831 831 832 832 833 833 834 835 835 836 836 837 838 839 839 840 840 840 841 841 841 842 842 842 843 843 843 843 844 844 845 846 847 847 848 848 848 848 848 847
849 849 850 850 850 850 850 850 850 851 851 851 852 852 851 851 851 851 850 850 849 849 848 847 846 845 844 843 842 841 841 840 839 838 838 837 837 836 836 836 835 835 835 835 835 835 835 835 835 836 836 836 837 837 838 838 839 839 840 840 840 840 841 841 841 841 841 842 842 842 842 843 843 844 844 845 846 846 847 847 847 847 847 847 847
848 849 849 849 849 849 849 849 849 850 850 850 851 851 851 851 851 851 851 850 850 849 849 848 847 846 845 845 844 843 843 842 841 841 840 840 840 839 839 839 838 838 837 837 837 837 838 838 838 838 838 838 839 839 839 840 840 841 841 841 841 841 841 841 841 842 842 842 842 842 842 843 843 844 844 845 845 846 846 846 846 846 846 846 846
848 848 848 848 848 848 848 848 849 849 849 849 850 850 850 850 850 851 851 851 850 850 849 849 848 847 846 846 845 845 844 844 843 843 842 842 842 841 841 840 840 840 839 839 839 839 839 840 840 840 840 840 840 841 841 841 842 842 842 843 843 843 842 842 842 842 842 842 842 842 843 843 843 844 844 845 845 845 845 845 846 845 845 845 845